logo tempoitalia

Diretta Meteo Thedford-Thomas, Stati Uniti (USA)lunedì 31 agosto ore 01:35

Mappa
Sereno 17 °C Sereno 24 Ore: T.min 17 T.max 33
Ponente Nord-Ovest Km/h 11.1 Punto di rugiada: 13 °C Umidità: 77% Visibilità: 10 Km
Il sole sorge alle: 07:07 Il sole tramonta alle: 20:17
31 Agosto 2026 01:35 tempo osservato: Sereno Sereno 17 77 1015 vento: Nord NO 11.1
31 Agosto 2026 01:15 tempo osservato: Sereno Sereno 17 77 1015 vento: Nord NO 9.3
31 Agosto 2026 00:55 tempo osservato: Sereno Sereno 18 67 1015 vento: Nord NO 9.3
31 Agosto 2026 00:35 tempo osservato: Sereno Sereno 19 63 1014 vento: Nord NO 11.1
31 Agosto 2026 00:15 tempo osservato: Sereno Sereno 20 59 1014 vento: Nord NO 13
30 Agosto 2026 23:55 tempo osservato: Sereno Sereno 22 53 1014 vento: Nord O 9.3
30 Agosto 2026 23:35 tempo osservato: Sereno Sereno 22 53 1014 vento: Nord O/SO 14.8
30 Agosto 2026 23:15 tempo osservato: Sereno Sereno 23 49 1014 vento: Nord O 11.1
30 Agosto 2026 22:55 tempo osservato: Sereno Sereno 24 47 1014 vento: Nord O/SO 14.8
30 Agosto 2026 22:35 tempo osservato: Sereno Sereno 23 56 1014 vento: Nord O/SO 14.8
30 Agosto 2026 22:15 tempo osservato: Sereno Sereno 23 56 1013 vento: Nord SO 14.8
30 Agosto 2026 21:55 tempo osservato: Sereno Sereno 23 56 1013 vento: Nord S/SO 13
30 Agosto 2026 21:35 tempo osservato: Sereno Sereno 23 56 1012 vento: Nord S/SO 9.3
30 Agosto 2026 21:15 tempo osservato: Sereno Sereno 24 53 1012 vento: Nord S/SO 14.8
30 Agosto 2026 20:55 tempo osservato: Sereno Sereno 24 53 1012 vento: Nord S/SO 11.1
30 Agosto 2026 20:35 tempo osservato: Sereno Sereno 25 50 1012 vento: Nord S 13
30 Agosto 2026 20:15 tempo osservato: Sereno Sereno 25 53 1011 vento: Nord S 11.1
30 Agosto 2026 19:55 tempo osservato: Sereno Sereno 26 50 1012 vento: Nord S/SO 9.3
30 Agosto 2026 19:35 tempo osservato: Sereno Sereno 27 47 1012 vento: Nord S/SO 9.3
30 Agosto 2026 19:15 tempo osservato: Sereno Sereno 28 45 1012 vento: Nord N 5.5
30 Agosto 2026 18:55 tempo osservato: Sereno Sereno 29 39 1012 vento: Nord SO 7.4
30 Agosto 2026 18:35 tempo osservato: Sereno Sereno 29 37 1012 vento: Nord O/SO 7.4
30 Agosto 2026 18:15 tempo osservato: Sereno Sereno 30 33 1012 vento: Nord O 13
30 Agosto 2026 17:55 tempo osservato: Sereno Sereno 32 29 1012 vento: Nord O 25.9
30 Agosto 2026 17:35 tempo osservato: Sereno Sereno 32 27 1011 vento: Nord O 25.9
30 Agosto 2026 17:15 tempo osservato: Sereno Sereno 33 29 1011 vento: Nord O 22.2
30 Agosto 2026 16:55 tempo osservato: Sereno Sereno 33 29 1011 vento: Nord O/SO 20.3
30 Agosto 2026 16:35 tempo osservato: Sereno Sereno 31 33 1011 vento: Nord O/SO 13
30 Agosto 2026 16:15 tempo osservato: Sereno Sereno 31 33 1011 vento: Nord O/SO 14.8
30 Agosto 2026 15:55 tempo osservato: Sereno Sereno 31 33 1011 vento: Nord O/SO 20.3
30 Agosto 2026 15:35 tempo osservato: Sereno Sereno 32 31 1011 vento: Nord O/SO 20.3
30 Agosto 2026 15:15 tempo osservato: Sereno Sereno 31 35 1011 vento: Nord O/SO 16.7
30 Agosto 2026 14:55 tempo osservato: Sereno Sereno 31 35 1011 vento: Nord O 16.7
30 Agosto 2026 14:35 tempo osservato: Sereno Sereno 31 35 1012 vento: Nord O 22.2
30 Agosto 2026 14:15 tempo osservato: Sereno Sereno 31 33 1012 vento: Nord O/SO 22.2
30 Agosto 2026 13:55 tempo osservato: Sereno Sereno 30 37 1012 vento: Nord O/SO 20.3
30 Agosto 2026 13:35 tempo osservato: Sereno Sereno 31 35 1012 vento: Nord O/SO 18.5
30 Agosto 2026 13:15 tempo osservato: Sereno Sereno 30 37 1012 vento: Nord O/SO 13
30 Agosto 2026 12:55 tempo osservato: Sereno Sereno 30 35 1012 vento: Nord O 16.7
30 Agosto 2026 12:35 tempo osservato: Sereno Sereno 28 42 1012 vento: Nord O/NO 11.1
30 Agosto 2026 12:15 tempo osservato: Sereno Sereno 29 37 1012 vento: Nord O/NO 13
30 Agosto 2026 11:55 tempo osservato: Sereno Sereno 29 39 1012 vento: Nord O/NO 9.3
30 Agosto 2026 11:35 tempo osservato: Sereno Sereno 28 42 1012 vento: Nord O/NO 13
30 Agosto 2026 11:15 tempo osservato: Sereno Sereno 28 42 1012 vento: Nord O/NO 18.5
30 Agosto 2026 10:55 tempo osservato: Sereno Sereno 28 45 1012 vento: Nord O/NO 20.3
30 Agosto 2026 10:35 tempo osservato: Sereno Sereno 26 50 1012 vento: Nord O/NO 11.1
30 Agosto 2026 10:15 tempo osservato: Sereno Sereno 25 53 1012 vento: Nord O 13
30 Agosto 2026 09:55 tempo osservato: Sereno Sereno 23 60 1012 vento: Nord N 0
30 Agosto 2026 09:35 tempo osservato: Sereno Sereno 22 64 1012 vento: Nord N 5.5
30 Agosto 2026 09:15 tempo osservato: Sereno Sereno 21 73 1012 vento: Nord N 0
30 Agosto 2026 08:55 tempo osservato: Sereno Sereno 21 68 1012 vento: Nord N 5.5
30 Agosto 2026 08:35 tempo osservato: Sereno Sereno 20 72 1012 vento: Nord O 13
30 Agosto 2026 08:15 tempo osservato: Sereno Sereno 19 77 1012 vento: Nord O/NO 7.4
30 Agosto 2026 07:55 tempo osservato: Sereno Sereno 18 82 1012 vento: Nord N 5.5
30 Agosto 2026 07:35 tempo osservato: Sereno Sereno 18 82 1012 vento: Nord O 13
30 Agosto 2026 07:15 tempo osservato: Sereno Sereno 17 88 1012 vento: Nord O/NO 7.4
30 Agosto 2026 06:55 tempo osservato: Sereno Sereno 17 88 1011 vento: Nord N 5.5
30 Agosto 2026 06:35 tempo osservato: Sereno Sereno 17 88 1011 vento: Nord N 0
30 Agosto 2026 06:15 tempo osservato: Sereno Sereno 18 82 1011 vento: Nord O/NO 9.3
30 Agosto 2026 05:55 tempo osservato: Sereno Sereno 18 88 1011 vento: Nord O/NO 7.4
30 Agosto 2026 05:35 tempo osservato: Sereno Sereno 19 82 1011 vento: Nord N 5.5
30 Agosto 2026 05:15 tempo osservato: Sereno Sereno 19 82 1011 vento: Nord O/SO 7.4
30 Agosto 2026 04:55 tempo osservato: Sereno Sereno 18 88 1011 vento: Nord O/SO 7.4
30 Agosto 2026 04:35 tempo osservato: Sereno Sereno 18 88 1011 vento: Nord O/NO 9.3
30 Agosto 2026 04:15 tempo osservato: Sereno Sereno 19 82 1011 vento: Nord N 5.5
30 Agosto 2026 03:55 tempo osservato: Sereno Sereno 19 82 1011 vento: Nord SO 9.3
30 Agosto 2026 03:35 tempo osservato: Sereno Sereno 20 77 1010 vento: Nord SO 7.4
30 Agosto 2026 03:15 tempo osservato: Sereno Sereno 20 77 1011 vento: Nord SO 11.1
30 Agosto 2026 02:55 tempo osservato: Sereno Sereno 21 73 1011 vento: Nord N 0
30 Agosto 2026 02:35 tempo osservato: Nuvoloso Nuvoloso 21 73 1011 vento: Nord SO 11.1
30 Agosto 2026 02:15 tempo osservato: Sereno Sereno 22 68 1011 vento: Nord S 11.1
30 Agosto 2026 01:55 tempo osservato: Sereno Sereno 22 73 1012 vento: Nord S/SO 14.8
30 Agosto 2026 01:35 tempo osservato: Sereno Sereno 21 77 1012 vento: Nord SO 13